DW6092 Weather Reports


Display with metric or nautical units.
time (UTC)temp
F
wind
direction
speed
MPH
gust
MPH
rain 1hr
in
rain 24hr
in
rain mn
in
humidity
%
barometer
mb
20220629074042 71 0 0.0 0.0 0.00 0.00 0.00 31 1017.8
20220629073542 71 0 0.0 0.0 0.00 0.00 0.00 30 1017.8
20220629073056 72 0 0.0 0.0 0.00 0.00 0.00 30 1017.8
20220629072547 72 0 0.0 0.0 0.00 0.00 0.00 30 1017.8
20220629072048 72 0 0.0 0.0 0.00 0.00 0.00 30 1017.7
20220629071601 72 0 0.0 0.0 0.00 0.00 0.00 30 1017.7
20220629071048 72 0 0.0 0.0 0.00 0.00 0.00 29 1017.8
20220629070546 72 0 0.0 0.0 0.00 0.00 0.00 29 1017.7
20220629070102 72 0 0.0 0.0 0.00 0.00 0.00 29 1017.8
20220629065547 73 0 0.0 0.0 0.00 0.00 0.00 29 1017.8
20220629065048 73 0 0.0 0.0 0.00 0.00 0.00 29 1017.8
20220629064604 73 0 0.0 2.0 0.00 0.00 0.00 29 1017.8
20220629064047 73 0 0.0 2.0 0.00 0.00 0.00 28 1017.7
20220629063547 74 0 0.0 2.0 0.00 0.00 0.00 28 1017.6
20220629063051 74 72 0.0 2.0 0.00 0.00 0.00 29 1017.7
20220629062546 74 0 0.0 1.0 0.00 0.00 0.00 28 1017.7
20220629062047 74 0 0.0 3.0 0.00 0.00 0.00 28 1017.6
20220629061553 74 72 0.0 3.0 0.00 0.00 0.00 28 1017.6
20220629061046 74 0 0.0 2.0 0.00 0.00 0.00 28 1017.7
20220629060545 75 0 0.0 1.0 0.00 0.00 0.00 28 1017.8
20220629060108 75 0 0.0 3.0 0.00 0.00 0.00 27 1017.8
20220629055547 75 0 0.0 3.0 0.00 0.00 0.00 27 1017.8
20220629055046 75 80 0.0 3.0 0.00 0.00 0.00 27 1017.8
20220629054558 75 80 1.0 3.0 0.00 0.00 0.00 28 1017.8
20220629054045 75 67 0.0 2.0 0.00 0.00 0.00 28 1017.7
20220629053548 75 0 0.0 5.0 0.00 0.00 0.00 28 1017.8
20220629053056 76 65 0.0 5.0 0.00 0.00 0.00 27 1017.7
20220629052549 76 76 0.0 2.0 0.00 0.00 0.00 28 1017.8
20220629052046 76 0 0.0 3.0 0.00 0.00 0.00 28 1017.8
20220629051555 76 0 0.0 3.0 0.00 0.00 0.00 26 1017.9
20220629051046 75 75 0.0 3.0 0.00 0.00 0.00 28 1017.8
20220629050547 75 0 0.0 0.0 0.00 0.00 0.00 28 1017.8
20220629050109 75 0 0.0 0.0 0.00 0.00 0.00 28 1017.8
20220629045546 75 0 0.0 0.0 0.00 0.00 0.00 28 1017.7
20220629045045 75 0 0.0 0.0 0.00 0.00 0.00 29 1017.7
20220629044553 75 0 0.0 0.0 0.00 0.00 0.00 30 1017.7
20220629044046 76 0 0.0 0.0 0.00 0.00 0.00 30 1017.7
20220629043546 76 0 0.0 0.0 0.00 0.00 0.00 29 1017.6
20220629043053 76 0 0.0 0.0 0.00 0.00 0.00 29 1017.6
20220629042546 77 0 0.0 0.0 0.00 0.00 0.00 28 1017.6
20220629042046 78 0 0.0 0.0 0.00 0.00 0.00 27 1017.6
20220629041549 78 0 0.0 0.0 0.00 0.00 0.00 26 1017.6
20220629041045 79 0 0.0 0.0 0.00 0.00 0.00 25 1017.6
20220629040547 79 0 0.0 0.0 0.00 0.00 0.00 25 1017.5
20220629040059 80 0 0.0 0.0 0.00 0.00 0.00 24 1017.6
20220629035545 80 0 0.0 0.0 0.00 0.00 0.00 23 1017.5
20220629035048 80 0 0.0 0.0 0.00 0.00 0.00 23 1017.5
20220629034551 81 0 0.0 0.0 0.00 0.00 0.00 23 1017.6
20220629034046 81 0 0.0 0.0 0.00 0.00 0.00 21 1017.6
20220629033547 82 0 0.0 0.0 0.00 0.00 0.00 21 1017.6
20220629033101 82 0 0.0 0.0 0.00 0.00 0.00 21 1017.6
20220629032546 83 0 0.0 0.0 0.00 0.00 0.00 21 1017.7
20220629032046 83 0 0.0 0.0 0.00 0.00 0.00 20 1017.6
20220629031555 83 0 0.0 0.0 0.00 0.00 0.00 19 1017.7
20220629031048 84 0 0.0 0.0 0.00 0.00 0.00 19 1017.6
20220629030546 84 0 0.0 0.0 0.00 0.00 0.00 18 1017.6
20220629030053 85 0 0.0 0.0 0.00 0.00 0.00 18 1017.5
20220629025546 85 0 0.0 0.0 0.00 0.00 0.00 18 1017.6
20220629025046 85 0 0.0 1.0 0.00 0.00 0.00 17 1017.6
20220629024600 86 0 0.0 2.0 0.00 0.00 0.00 16 1017.6
20220629024046 86 248 0.0 3.0 0.00 0.00 0.00 15 1017.5
20220629023546 86 0 1.0 8.0 0.00 0.00 0.00 14 1017.5
20220629023057 86 268 0.0 8.0 0.00 0.00 0.00 15 1017.6
20220629022549 87 271 1.0 3.0 0.00 0.00 0.00 15 1017.5
20220629022047 87 251 0.0 3.0 0.00 0.00 0.00 15 1017.5
20220629021601 87 262 1.0 3.0 0.00 0.00 0.00 14 1017.5
20220629021045 87 0 0.0 4.0 0.00 0.00 0.00 17 1017.6
20220629020546 88 254 1.0 4.0 0.00 0.00 0.00 17 1017.6
20220629020054 88 0 1.0 4.0 0.00 0.00 0.00 15 1017.6
20220629015549 88 217 0.0 4.0 0.00 0.00 0.00 14 1017.5
20220629015045 89 0 0.0 4.0 0.00 0.00 0.00 15 1017.6
20220629014556 89 224 1.0 4.0 0.00 0.00 0.00 13 1017.5
20220629014045 89 0 0.0 5.0 0.00 0.00 0.00 15 1017.5
20220629013545 89 218 2.0 5.0 0.00 0.00 0.00 13 1017.6
20220629013054 89 251 1.0 5.0 0.00 0.00 0.00 13 1017.6
20220629012545 89 246 1.0 4.0 0.00 0.00 0.00 14 1017.5
20220629012045 90 220 1.0 7.0 0.00 0.00 0.00 13 1017.7
20220629011603 90 0 1.0 7.0 0.00 0.00 0.00 13 1017.5
20220629011045 90 252 1.0 8.0 0.00 0.00 0.00 12 1017.7
20220629010546 90 226 2.0 8.0 0.00 0.00 0.00 13 1017.7
20220629010108 91 0 0.0 7.0 0.00 0.00 0.00 13 1017.8
20220629005546 91 238 2.0 7.0 0.00 0.00 0.00 12 1017.8
20220629005047 91 187 1.0 7.0 0.00 0.00 0.00 12 1017.8
20220629004606 91 233 1.0 6.0 0.00 0.00 0.00 12 1017.9
20220629004049 91 222 2.0 5.0 0.00 0.00 0.00 12 1018.0
20220629003546 91 0 1.0 4.0 0.00 0.00 0.00 14 1018.1
20220629003106 91 0 1.0 10.0 0.00 0.00 0.00 13 1018.1
20220629002545 91 227 2.0 10.0 0.00 0.00 0.00 13 1018.1
20220629002045 91 0 2.0 7.0 0.00 0.00 0.00 13 1018.1
20220629001603 91 220 1.0 7.0 0.00 0.00 0.00 13 1018.3
20220629001047 91 148 1.0 7.0 0.00 0.00 0.00 13 1018.2
20220629000548 91 168 1.0 5.0 0.00 0.00 0.00 14 1018.4
20220629000106 92 250 1.0 5.0 0.00 0.00 0.00 14 1018.4
20220628235546 92 152 2.0 8.0 0.00 0.00 0.00 12 1018.4
20220628235046 92 217 2.0 8.0 0.00 0.00 0.00 12 1018.5
20220628234604 93 241 1.0 4.0 0.00 0.00 0.00 13 1018.5
20220628234045 93 257 1.0 3.0 0.00 0.00 0.00 13 1018.6
20220628233545 93 217 1.0 3.0 0.00 0.00 0.00 11 1018.6
20220628233058 93 0 1.0 4.0 0.00 0.00 0.00 11 1018.6
20220628232546 93 216 1.0 5.0 0.00 0.00 0.00 11 1018.6
20220628232049 94 251 2.0 10.0 0.00 0.00 0.00 10 1018.8
20220628231608 94 221 2.0 10.0 0.00 0.00 0.00 9 1018.8
20220628231048 94 228 2.0 8.0 0.00 0.00 0.00 9 1018.7
20220628230549 95 205 2.0 8.0 0.00 0.00 0.00 10 1018.9
20220628230056 95 232 2.0 8.0 0.00 0.00 0.00 10 1018.9
20220628225545 95 219 2.0 9.0 0.00 0.00 0.00 10 1019.0
20220628225047 95 267 3.0 9.0 0.00 0.00 0.00 9 1019.1
20220628224552 96 243 2.0 8.0 0.00 0.00 0.00 9 1019.2
20220628224045 95 44 1.0 6.0 0.00 0.00 0.00 10 1018.9
20220628223548 96 222 2.0 6.0 0.00 0.00 0.00 9 1019.1
20220628223059 96 207 2.0 7.0 0.00 0.00 0.00 9 1019.1
20220628222547 95 189 2.0 7.0 0.00 0.00 0.00 10 1019.1
20220628222046 96 232 3.0 7.0 0.00 0.00 0.00 9 1019.2
20220628221606 96 208 1.0 5.0 0.00 0.00 0.00 10 1019.2
20220628221046 96 56 1.0 7.0 0.00 0.00 0.00 10 1019.2
20220628220544 96 217 1.0 8.0 0.00 0.00 0.00 10 1019.2
20220628220106 95 207 2.0 8.0 0.00 0.00 0.00 10 1019.2
20220628215546 95 180 1.0 8.0 0.00 0.00 0.00 9 1019.4
20220628215045 96 246 2.0 9.0 0.00 0.00 0.00 9 1019.3
20220628214607 96 268 3.0 9.0 0.00 0.00 0.00 9 1019.3
20220628214046 95 257 0.0 8.0 0.00 0.00 0.00 12 1019.4
20220628213545 96 269 2.0 6.0 0.00 0.00 0.00 11 1019.4
20220628213106 95 0 1.0 6.0 0.00 0.00 0.00 11 1019.5
20220628212545 95 234 1.0 6.0 0.00 0.00 0.00 12 1019.5
20220628212049 95 233 2.0 7.0 0.00 0.00 0.00 12 1019.4
20220628211610 95 164 1.0 7.0 0.00 0.00 0.00 13 1019.5
20220628211045 95 243 1.0 5.0 0.00 0.00 0.00 12 1019.4
20220628210545 94 217 1.0 5.0 0.00 0.00 0.00 12 1019.5
20220628210115 94 269 1.0 7.0 0.00 0.00 0.00 14 1019.5
20220628205546 94 248 2.0 7.0 0.00 0.00 0.00 14 1019.5
20220628205046 95 211 1.0 4.0 0.00 0.00 0.00 12 1019.6
20220628204601 95 226 1.0 4.0 0.00 0.00 0.00 14 1019.7
20220628204046 94 153 1.0 4.0 0.00 0.00 0.00 16 1019.6
20220628203549 94 222 0.0 3.0 0.00 0.00 0.00 16 1019.6
20220628203100 94 0 1.0 4.0 0.00 0.00 0.00 14 1019.8
20220628202546 94 159 1.0 6.0 0.00 0.00 0.00 15 1019.7
20220628202046 93 0 2.0 6.0 0.00 0.00 0.00 15 1019.8
20220628201604 93 221 2.0 6.0 0.00 0.00 0.00 17 1019.8
20220628201046 93 242 0.0 4.0 0.00 0.00 0.00 17 1019.8
20220628200545 93 232 1.0 7.0 0.00 0.00 0.00 18 1019.8
20220628200104 93 257 2.0 7.0 0.00 0.00 0.00 18 1019.9
20220628195546 92 171 2.0 7.0 0.00 0.00 0.00 17 1020.0
20220628195046 92 271 1.0 5.0 0.00 0.00 0.00 17 1019.9
20220628194606 92 254 1.0 5.0 0.00 0.00 0.00 16 1020.0
20220628194048 93 0 2.0 5.0 0.00 0.00 0.00 16 1020.1
20220628193546 92 229 1.0 4.0 0.00 0.00 0.00 16 1020.1
20220628193104 92 234 1.0 4.0 0.00 0.00 0.00 16 1020.1
20220628192549 92 242 1.0 6.0 0.00 0.00 0.00 17 1020.2
20220628192046 91 225 2.0 7.0 0.00 0.00 0.00 17 1020.2
20220628191602 91 255 1.0 7.0 0.00 0.00 0.00 18 1020.2
20220628191046 91 233 2.0 5.0 0.00 0.00 0.00 18 1020.2
20220628190548 91 0 0.0 5.0 0.00 0.00 0.00 18 1020.2
20220628190107 90 209 1.0 5.0 0.00 0.00 0.00 17 1020.3
20220628185545 90 225 2.0 6.0 0.00 0.00 0.00 17 1020.2
20220628185045 90 198 2.0 6.0 0.00 0.00 0.00 17 1020.4
20220628184556 90 225 1.0 5.0 0.00 0.00 0.00 17 1020.3
20220628184047 90 251 1.0 5.0 0.00 0.00 0.00 17 1020.3
20220628183545 90 153 1.0 7.0 0.00 0.00 0.00 18 1020.4
20220628183104 90 0 2.0 7.0 0.00 0.00 0.00 17 1020.4
20220628182545 90 0 1.0 5.0 0.00 0.00 0.00 18 1020.4
20220628182045 90 317 2.0 5.0 0.00 0.00 0.00 17 1020.3
20220628181605 89 0 1.0 4.0 0.00 0.00 0.00 17 1020.4
20220628181045 89 0 1.0 4.0 0.00 0.00 0.00 16 1020.3
20220628180545 89 234 0.0 4.0 0.00 0.00 0.00 18 1020.4
20220628180102 89 0 1.0 5.0 0.00 0.00 0.00 19 1020.3
20220628175549 89 221 1.0 5.0 0.00 0.00 0.00 17 1020.1
20220628175046 89 213 0.0 4.0 0.00 0.00 0.00 17 1020.2
20220628174604 89 65 1.0 4.0 0.00 0.00 0.00 19 1020.2
20220628174046 88 92 0.0 3.0 0.00 0.00 0.00 19 1020.1
20220628173546 88 22 0.0 3.0 0.00 0.00 0.00 19 1020.1
20220628173054 88 0 0.0 3.0 0.00 0.00 0.00 19 1020.1
20220628172547 88 61 1.0 3.0 0.00 0.00 0.00 19 1020.2
20220628172046 87 321 0.0 2.0 0.00 0.00 0.00 20 1020.1
20220628171559 87 267 1.0 3.0 0.00 0.00 0.00 19 1020.1
20220628171045 86 218 0.0 3.0 0.00 0.00 0.00 21 1020.1
20220628170545 85 215 1.0 3.0 0.00 0.00 0.00 20 1020.2
20220628170111 85 0 0.0 3.0 0.00 0.00 0.00 22 1020.1
20220628165545 84 0 0.0 2.0 0.00 0.00 0.00 22 1020.1
20220628165046 83 0 0.0 2.0 0.00 0.00 0.00 23 1020.1
20220628164604 83 92 0.0 1.0 0.00 0.00 0.00 22 1020.1
20220628164043 83 0 0.0 3.0 0.00 0.00 0.00 23 1020.1
20220628163543 83 0 1.0 3.0 0.00 0.00 0.00 22 1020.0
20220628163103 83 0 0.0 3.0 0.00 0.00 0.00 24 1020.2
20220628162543 82 78 1.0 3.0 0.00 0.00 0.00 23 1020.2
20220628162045 82 0 0.0 0.0 0.00 0.00 0.00 26 1020.1
20220628161556 82 0 0.0 2.0 0.00 0.00 0.00 24 1020.1
20220628161043 82 0 0.0 2.0 0.00 0.00 0.00 25 1020.2
20220628160543 82 0 0.0 2.0 0.00 0.00 0.00 26 1020.0
20220628160102 81 79 0.0 2.0 0.00 0.00 0.00 24 1020.1
20220628155551 81 79 0.0 2.0 0.00 0.00 0.00 26 1020.0
20220628155042 81 0 0.0 0.0 0.00 0.00 0.00 27 1020.1
20220628154557 80 0 0.0 1.0 0.00 0.00 0.00 26 1020.0
20220628154042 80 0 0.0 1.0 0.00 0.00 0.00 26 1020.0
20220628153543 79 0 0.0 0.0 0.00 0.00 0.00 30 1020.0
20220628153100 78 0 0.0 0.0 0.00 0.00 0.00 31 1019.9
20220628152543 78 0 0.0 0.0 0.00 0.00 0.00 28 1020.0
20220628152042 77 0 0.0 0.0 0.00 0.00 0.00 33 1019.9
20220628151606 76 0 0.0 0.0 0.00 0.00 0.00 36 1019.9
20220628151043 75 0 0.0 0.0 0.00 0.00 0.00 36 1019.8
20220628150542 75 0 0.0 0.0 0.00 0.00 0.00 35 1019.8
20220628150108 74 0 0.0 0.0 0.00 0.00 0.00 36 1019.9
20220628145545 74 0 0.0 0.0 0.00 0.00 0.00 36 1019.9
20220628145047 74 0 0.0 0.0 0.00 0.00 0.00 36 1019.9
20220628144555 73 0 0.0 0.0 0.00 0.00 0.00 33 1019.9
20220628144042 73 0 0.0 0.0 0.00 0.00 0.00 33 1019.9
20220628143544 73 0 0.0 0.0 0.00 0.00 0.00 33 1019.9
20220628143113 72 0 0.0 0.0 0.00 0.00 0.00 34 1019.9
20220628142544 72 0 0.0 0.0 0.00 0.00 0.00 34 1019.8
20220628142044 72 0 0.0 0.0 0.00 0.00 0.00 31 1019.8
20220628141601 72 0 0.0 0.0 0.00 0.00 0.00 29 1019.8
20220628141044 72 0 0.0 0.0 0.00 0.00 0.00 26 1019.7
20220628140545 71 0 0.0 0.0 0.00 0.00 0.00 27 1019.7
20220628140108 71 0 0.0 0.0 0.00 0.00 0.00 26 1019.6
20220628135543 71 0 0.0 0.0 0.00 0.00 0.00 29 1019.6
20220628135043 71 0 0.0 0.0 0.00 0.00 0.00 29 1019.5
20220628134606 71 0 0.0 0.0 0.00 0.00 0.00 28 1019.5
20220628134043 70 0 0.0 0.0 0.00 0.00 0.00 27 1019.5
20220628133543 70 0 0.0 0.0 0.00 0.00 0.00 26 1019.5
20220628133127 71 0 0.0 0.0 0.00 0.00 0.00 26 1019.4
20220628132543 71 0 0.0 0.0 0.00 0.00 0.00 26 1019.3
20220628132042 71 0 0.0 2.0 0.00 0.00 0.00 24 1019.4
20220628131608 71 0 0.0 2.0 0.00 0.00 0.00 23 1019.3
20220628131045 71 0 0.0 2.0 0.00 0.00 0.00 23 1019.2
20220628130543 71 0 0.0 3.0 0.00 0.00 0.00 23 1019.3
20220628130059 71 80 1.0 3.0 0.00 0.00 0.00 23 1019.2
20220628125543 72 81 0.0 2.0 0.00 0.00 0.00 24 1019.2
20220628125043 72 81 0.0 2.0 0.00 0.00 0.00 23 1019.2
20220628124555 72 0 0.0 2.0 0.00 0.00 0.00 21 1019.2
20220628124043 72 86 0.0 3.0 0.00 0.00 0.00 22 1019.2
20220628123543 71 84 1.0 3.0 0.00 0.00 0.00 22 1019.2
20220628123103 71 67 1.0 3.0 0.00 0.00 0.00 23 1019.2
20220628122542 71 67 1.0 3.0 0.00 0.00 0.00 23 1019.2
20220628122042 71 67 1.0 3.0 0.00 0.00 0.00 24 1019.2
20220628121601 71 67 1.0 3.0 0.00 0.00 0.00 23 1019.1
20220628121043 71 68 1.0 3.0 0.00 0.00 0.00 23 1019.1
20220628120546 71 69 1.0 2.0 0.00 0.00 0.00 24 1019.1
20220628120057 71 69 1.0 2.0 0.00 0.00 0.00 23 1019.2
20220628115543 71 69 1.0 3.0 0.00 0.00 0.00 24 1019.2
20220628115043 71 69 1.0 3.0 0.00 0.00 0.00 25 1019.2
20220628114558 71 70 0.0 3.0 0.00 0.00 0.00 24 1019.1
20220628114042 71 70 1.0 3.0 0.00 0.00 0.00 24 1019.1
20220628113543 71 72 1.0 3.0 0.00 0.00 0.00 24 1019.2
20220628113055 72 0 1.0 3.0 0.00 0.00 0.00 24 1019.2
20220628112542 72 71 1.0 3.0 0.00 0.00 0.00 25 1019.3
20220628112044 72 71 1.0 2.0 0.00 0.00 0.00 24 1019.3
20220628111558 72 72 1.0 3.0 0.00 0.00 0.00 24 1019.3
20220628111043 72 72 1.0 3.0 0.00 0.00 0.00 24 1019.3
20220628110543 72 63 1.0 2.0 0.00 0.00 0.00 24 1019.3
20220628110105 72 63 1.0 2.0 0.00 0.00 0.00 24 1019.4
20220628105546 72 63 1.0 3.0 0.00 0.00 0.00 25 1019.4
20220628105042 72 63 1.0 3.0 0.00 0.00 0.00 25 1019.4
20220628104554 72 63 1.0 2.0 0.00 0.00 0.00 24 1019.4
20220628104043 72 63 1.0 2.0 0.00 0.00 0.00 24 1019.5
20220628103544 72 63 1.0 3.0 0.00 0.00 0.00 25 1019.6
20220628103101 72 63 1.0 3.0 0.00 0.00 0.00 25 1019.5
20220628102543 72 63 1.0 3.0 0.00 0.00 0.00 24 1019.4
20220628102043 72 63 1.0 3.0 0.00 0.00 0.00 24 1019.5
20220628101603 72 63 1.0 3.0 0.00 0.00 0.00 25 1019.5
20220628101043 72 67 1.0 3.0 0.00 0.00 0.00 25 1019.7
20220628100543 72 61 1.0 3.0 0.00 0.00 0.00 25 1019.6
20220628100108 72 96 1.0 2.0 0.00 0.00 0.00 25 1019.5
20220628095543 72 66 1.0 2.0 0.00 0.00 0.00 26 1019.6
20220628095043 72 66 1.0 2.0 0.00 0.00 0.00 25 1019.7
20220628094556 72 66 1.0 2.0 0.00 0.00 0.00 26 1019.6
20220628094044 73 67 1.0 3.0 0.00 0.00 0.00 26 1019.8
20220628093541 72 0 1.0 3.0 0.00 0.00 0.00 25 1019.7
20220628093052 72 70 1.0 3.0 0.00 0.00 0.00 26 1019.8
20220628092544 72 73 1.0 3.0 0.00 0.00 0.00 26 1019.7
20220628092043 72 73 1.0 3.0 0.00 0.00 0.00 26 1019.8
20220628091549 73 70 0.0 2.0 0.00 0.00 0.00 27 1019.8
20220628091044 73 0 0.0 2.0 0.00 0.00 0.00 26 1019.7
20220628090543 73 71 1.0 2.0 0.00 0.00 0.00 26 1019.8
20220628090048 73 71 1.0 3.0 0.00 0.00 0.00 26 1019.8
20220628085543 73 71 1.0 3.0 0.00 0.00 0.00 27 1019.8
20220628085044 73 65 1.0 2.0 0.00 0.00 0.00 27 1019.7
20220628084602 73 65 1.0 2.0 0.00 0.00 0.00 27 1019.7
20220628084043 73 66 1.0 2.0 0.00 0.00 0.00 26 1019.8
20220628083544 73 66 1.0 3.0 0.00 0.00 0.00 26 1019.9
20220628083100 73 0 1.0 3.0 0.00 0.00 0.00 26 1019.9
20220628082542 73 66 1.0 4.0 0.00 0.00 0.00 27 1019.8
20220628082043 73 66 1.0 4.0 0.00 0.00 0.00 27 1019.9
20220628081548 73 67 1.0 2.0 0.00 0.00 0.00 26 1019.9
20220628081043 73 67 0.0 3.0 0.00 0.00 0.00 27 1019.9
20220628080546 73 0 0.0 3.0 0.00 0.00 0.00 26 1020.0
20220628080053 73 73 1.0 3.0 0.00 0.00 0.00 27 1020.0
20220628075542 74 0 1.0 3.0 0.00 0.00 0.00 27 1020.0
20220628075045 74 73 1.0 3.0 0.00 0.00 0.00 27 1020.0
20220628074611 73 0 0.0 3.0 0.00 0.00 0.00 26 1020.0